GFSMW_prec_cthk_093.txt.gz
RH
12 15 16 16 17 19 23 28 29 29 30 35 38 41 46 54 54 48 49 38 46 69 85 91 90 99 91 95 97 98 97 96 92 85 72 65 61 59 54 55 56 57 53
13 13 12 14 17 21 21 26 28 33 31 36 40 47 53 58 52 48 45 42 54 66 79 88 93 85 94 96 99 97 96 95 93 80 72 66 64 63 60 58 61 61 62
12 12 12 13 18 23 23 25 26 33 33 38 42 53 61 57 49 46 44 51 62 71 78 87 89 92 95 98 95 97 96 96 96 79 61 63 64 65 64 64 61 61 58
21 20 15 14 17 21 25 26 27 34 34 38 48 58 58 49 46 45 38 58 67 74 80 86 90 95 93 98 95 97 94 94 91 86 65 61 63 68 67 61 63 62 59
28 26 20 17 17 21 26 27 32 38 36 39 51 64 57 49 45 33 39 58 67 74 87 93 97 97 95 97 97 98 95 94 90 78 78 73 73 72 66 65 66 64 61
37 34 27 24 21 24 32 32 37 37 38 47 63 65 53 48 41 35 45 55 64 79 89 97 97 95 98 98 98 98 95 90 89 72 70 77 66 75 67 70 71 69 70
45 39 36 30 27 28 33 36 36 40 47 59 67 61 49 43 33 40 44 51 63 81 90 97 98 95 98 97 97 95 94 93 83 76 66 69 71 80 74 72 78 80 77
48 45 44 39 37 37 38 37 43 51 58 67 67 55 47 33 38 38 43 50 64 82 98 98 98 96 96 99 98 98 97 88 80 68 65 73 81 81 80 79 81 84 84
48 49 43 39 44 44 44 42 55 63 65 69 59 53 40 34 37 39 45 54 67 85 98 99 98 97 99 96 97 95 93 88 81 75 82 82 87 88 84 88 83 81 83
48 48 52 51 51 51 51 52 60 66 68 68 58 50 39 35 37 40 47 59 73 91 98 99 98 99 99 98 97 93 96 94 88 78 82 89 91 91 85 81 83 87 85
52 56 59 58 59 58 58 60 64 70 68 67 58 47 39 36 38 43 49 67 83 95 99 98 98 99 99 99 99 99 97 91 77 74 80 89 93 90 85 84 84 85 93
59 64 67 66 65 66 66 65 72 70 69 66 52 48 40 36 39 44 54 74 84 93 96 97 98 99 99 98 96 90 85 86 89 92 93 91 92 89 87 83 81 83 78
64 69 72 73 72 73 73 71 75 72 70 65 54 50 41 37 42 47 57 74 81 88 89 96 96 96 95 93 93 92 92 95 96 96 93 87 81 81 77 72 72 72 72
71 78 77 78 78 79 80 76 79 75 74 63 56 50 44 40 45 52 57 66 76 82 84 91 91 94 95 94 94 94 95 96 96 96 92 87 83 75 70 65 66 68 73
75 82 82 79 81 82 81 82 83 79 78 63 59 52 49 43 47 52 56 61 68 72 73 70 72 72 76 81 84 88 95 99 93 86 77 76 74 73 70 67 65 63 67
77 84 88 84 85 85 86 84 84 80 72 65 59 54 52 47 49 52 56 58 61 62 65 66 66 66 64 66 68 69 72 78 78 72 74 70 65 62 60 61 63 70 78
77 87 93 90 91 90 89 90 86 81 75 70 65 58 55 52 51 54 56 59 61 61 60 62 60 60 60 60 61 62 64 66 63 64 66 70 71 76 81 84 85 85 86
83 89 96 94 95 94 95 94 91 89 85 81 75 65 60 57 58 61 62 62 63 64 65 64 63 62 64 65 66 68 69 70 72 75 78 79 81 83 86 90 92 91 89
88 96 97 96 95 98 99 97 94 95 89 85 80 72 69 62 60 61 64 68 70 75 76 79 80 80 82 82 80 80 80 81 82 83 84 84 85 87 91 92 96 96 99
92 96 96 97 98 98 97 97 95 94 93 91 89 83 79 76 73 72 72 74 79 83 85 87 87 87 89 90 91 92 93 92 90 91 90 90 91 92 93 94 95 93 90
93 96 96 98 94 97 95 95 98 96 94 97 96 96 94 92 91 87 84 83 91 97 97 97 97 96 95 96 98 99 99 99 99 98 99 98 98 95 94 95 98 87 88
96 97 97 96 98 97 95 94 94 93 99 95 96 97 99 94 97 98 97 97 97 95 98 97 97 98 99 99 95 92 93 97 98 98 93 90 87 83 77 73 69 59 53
97 97 97 97 97 98 96 97 96 97 94 97 98 95 95 98 98 98 98 94 98 95 99 98 98 98 97 93 89 85 82 81 79 75 71 68 63 57 50 45 43 44 44
97 97 97 97 96 97 97 96 95 98 96 97 98 96 97 99 98 98 98 97 97 96 96 94 92 90 86 80 73 66 62 59 57 55 52 50 49 48 48 49 49 49 47
97 96 97 97 97 98 97 97 96 98 96 97 96 97 97 97 97 95 94 93 94 90 87 84 79 74 68 66 64 62 60 58 58 58 57 56 55 54 54 52 50 49 49
96 96 96 96 96 96 96 97 96 96 97 96 95 96 97 98 96 96 95 92 88 83 77 74 74 72 70 65 62 65 66 65 63 62 59 58 56 54 53 52 51 48 47

GFSMW_prec_cthk_099.txt.gz
RH
37 30 23 21 25 21 20 21 20 21 29 26 25 25 27 32 38 43 43 44 49 54 56 53 52 47 46 57 80 84 88 97 96 99 95 97 98 94 93 75 51 37 33
31 25 23 24 21 24 21 21 21 21 24 24 23 23 26 30 39 42 43 47 51 60 58 54 51 50 56 63 84 91 95 96 98 97 98 95 96 93 90 76 47 42 37
17 15 14 20 19 20 23 21 22 22 25 25 26 26 28 35 39 41 41 46 53 61 59 51 50 55 58 69 82 88 93 98 97 98 94 93 89 91 88 71 52 46 44
16 22 28 27 25 19 20 19 20 23 24 25 23 22 22 30 33 38 42 50 57 56 57 49 53 51 58 70 75 91 92 94 97 98 97 92 89 91 88 69 51 47 47
37 42 34 28 24 21 19 17 17 21 24 27 22 21 23 29 32 38 42 51 57 57 52 47 49 45 59 72 75 81 90 93 98 96 96 93 91 87 76 67 58 50 46
53 47 41 36 28 24 23 19 20 20 23 26 22 23 23 29 35 39 45 51 54 55 45 46 36 41 57 68 75 84 91 95 95 97 97 93 89 89 83 72 61 52 50
50 45 48 42 34 26 21 20 23 22 27 26 24 26 27 31 39 43 50 52 56 46 40 34 39 45 53 61 72 89 91 95 96 96 97 94 92 89 82 72 62 56 55
61 54 61 53 46 38 28 27 25 26 30 27 28 34 34 40 42 48 58 57 50 43 33 39 44 47 55 62 78 89 92 96 99 98 98 97 94 90 81 75 67 68 69
63 51 52 60 55 56 52 37 36 36 39 37 40 44 43 47 53 58 61 56 50 34 37 42 47 56 64 74 85 92 97 97 98 97 98 98 94 89 85 87 79 73 76
58 54 60 63 59 65 63 54 49 48 49 54 55 48 47 57 68 67 61 59 40 38 41 48 61 69 76 91 99 96 99 98 98 98 98 98 93 94 92 94 84 77 84
60 61 67 70 67 65 68 63 69 68 57 60 51 55 59 68 72 68 67 50 41 40 46 61 72 78 85 94 99 99 97 97 97 98 98 98 94 93 92 91 83 85 89
59 66 68 74 78 75 72 71 67 63 60 56 63 65 72 74 68 69 58 49 40 45 58 69 77 86 90 98 96 99 95 99 98 98 99 99 96 95 94 89 88 83 85
62 67 68 73 77 76 72 72 67 63 67 70 78 80 79 74 69 68 59 48 45 51 64 73 84 93 97 99 98 98 99 98 97 99 98 98 96 95 94 89 88 89 89
58 65 71 75 77 74 75 72 73 73 74 80 83 85 82 79 71 66 60 49 49 56 64 73 81 95 99 99 99 98 99 99 98 98 98 95 96 96 92 91 91 93 93
52 60 68 74 79 76 78 78 79 80 81 82 83 84 81 81 69 65 63 54 53 60 67 71 82 96 98 98 98 97 98 98 98 99 97 98 98 94 93 93 94 94 90
53 57 62 69 80 85 85 86 81 84 86 81 87 88 86 85 76 74 69 62 56 62 68 70 71 89 97 97 97 98 99 98 98 98 95 95 98 98 98 98 98 95 93
59 61 64 69 74 85 88 85 86 87 89 89 87 92 90 86 81 82 75 67 60 61 68 69 69 71 83 96 98 98 97 98 98 97 97 98 98 99 99 98 92 89 85
62 66 67 69 71 73 84 89 88 89 89 92 92 92 92 92 85 87 79 72 69 68 67 67 67 69 72 72 87 90 96 98 98 97 97 97 98 99 95 80 77 75 73
67 69 72 70 71 73 75 85 90 89 93 94 96 95 93 96 89 89 85 75 74 74 71 70 71 71 69 68 68 69 72 79 85 85 90 94 86 80 80 74 75 75 71
73 74 73 72 73 76 79 82 92 94 90 92 93 95 95 92 94 89 85 84 81 78 76 73 71 72 73 72 69 67 67 67 67 68 67 70 69 69 70 76 80 88 91
81 79 76 75 78 81 84 87 88 97 96 95 95 98 96 96 94 86 89 85 85 84 82 79 77 76 77 79 82 82 80 77 75 75 77 79 83 84 86 90 91 93 93
86 85 86 88 88 88 94 93 90 94 97 98 98 96 96 98 97 95 99 89 90 88 90 90 88 85 85 86 88 90 92 92 91 91 91 90 90 93 95 97 98 99 98
89 89 91 91 93 93 96 95 95 96 96 97 97 97 96 98 98 99 98 95 89 92 94 93 94 94 94 91 91 92 92 97 97 97 98 97 98 98 99 98 99 99 98
98 98 97 96 94 93 96 96 96 96 96 97 96 97 96 98 97 97 98 98 98 98 97 98 98 97 98 98 98 98 99 98 96 98 98 96 98 97 96 93 89 86 80
97 96 96 95 95 95 95 96 96 96 96 96 96 96 97 97 96 97 97 97 98 97 97 97 97 96 97 97 96 96 97 97 97 97 96 95 94 90 85 81 76 69 65
88 87 87 87 87 87 89 91 93 94 95 96 96 96 95 95 96 97 96 96 97 97 96 97 97 96 96 98 96 95 94 96 95 93 87 82 78 75 71 66 64 63 60

GFSMW_prec_cthk_105.txt.gz
RH
11 11 14 19 25 29 34 36 35 30 32 34 39 28 27 28 34 49 64 56 48 44 40 43 46 47 48 50 59 57 52 52 57 70 83 91 88 91 94 96 98 98 96
14 13 16 18 24 28 31 33 34 29 29 30 34 25 23 27 31 45 62 54 53 49 44 45 49 50 51 53 61 58 53 54 61 74 90 94 98 99 96 98 98 97 97
20 18 22 23 27 27 28 29 29 26 28 29 30 27 28 33 38 52 58 47 46 51 47 49 51 53 52 55 60 59 56 57 61 72 89 93 95 94 98 98 99 98 93
27 25 29 26 29 29 29 30 31 29 32 30 28 25 27 29 33 46 45 53 51 53 45 52 53 53 52 57 60 60 57 58 58 68 85 94 93 95 98 98 97 99 94
35 34 37 38 36 38 37 36 36 32 31 29 25 28 30 30 35 38 44 42 45 50 39 49 53 53 55 63 65 61 52 60 57 60 77 91 97 98 98 95 96 98 95
49 48 50 54 48 46 44 41 43 35 34 29 29 26 28 33 34 40 37 36 42 41 38 46 51 51 55 64 65 60 53 56 55 56 70 82 94 96 96 94 96 96 95
62 71 71 71 64 57 51 48 43 37 34 32 25 24 26 32 37 39 39 44 41 38 37 43 47 50 52 61 64 57 56 50 54 53 67 74 87 95 97 96 97 97 96
80 92 86 86 81 63 49 44 39 40 38 33 33 28 31 38 41 52 45 42 35 36 37 44 48 51 53 63 57 55 48 50 52 53 61 69 86 94 97 98 96 95 95
91 95 97 95 78 67 59 46 48 42 38 37 37 34 33 39 48 57 58 39 39 37 40 46 50 53 61 63 51 41 44 50 52 54 62 70 86 96 97 98 95 91 94
90 98 96 98 89 79 71 57 51 53 44 41 44 48 47 56 68 59 54 48 48 41 45 51 53 59 67 55 41 42 44 49 56 64 69 81 85 99 95 98 96 94 91
96 99 98 89 86 85 80 76 69 60 56 54 50 54 63 74 68 66 61 62 56 51 50 55 61 71 59 45 43 46 54 65 71 74 81 87 86 92 95 97 97 96 93
97 98 89 86 83 80 84 88 82 71 66 64 61 61 77 77 78 76 77 72 64 57 54 64 75 67 52 45 48 56 66 74 76 82 86 95 97 94 95 98 96 97 92
88 83 81 82 80 79 78 82 86 86 87 84 78 69 73 76 83 86 82 67 61 64 74 77 70 55 46 48 57 63 69 74 84 88 92 98 99 96 98 98 98 97 92
75 75 73 76 75 82 85 89 90 91 90 96 95 93 98 93 95 90 78 69 75 78 76 72 64 53 51 54 59 64 73 84 86 90 95 98 98 96 99 98 97 96 96
68 66 67 75 76 80 83 82 86 89 89 87 81 90 90 93 93 87 75 77 81 78 76 73 63 58 53 57 61 64 71 88 96 98 98 98 99 99 98 98 98 97 98
65 65 62 68 72 77 80 78 81 83 88 92 96 98 95 85 82 84 85 86 82 81 78 73 68 62 56 61 65 65 81 96 96 98 98 98 98 99 98 99 99 98 96
67 62 59 64 64 70 78 77 80 82 81 97 97 99 85 83 83 88 93 91 87 79 78 77 72 63 62 65 67 70 80 94 98 98 97 98 98 98 99 98 99 99 98
71 67 64 64 67 66 69 75 77 87 83 87 85 83 86 87 86 89 91 90 92 89 84 83 79 72 65 69 72 74 75 91 96 98 98 98 99 98 98 99 99 99 98
78 74 69 65 64 67 66 67 72 77 84 86 88 87 91 86 87 90 91 90 90 94 89 90 90 78 69 69 70 72 76 84 96 98 99 99 99 99 99 98 99 98 98
78 76 74 72 68 67 69 67 68 70 74 79 84 85 88 90 88 89 91 92 92 93 96 95 93 88 76 74 79 76 80 74 82 94 97 98 98 99 98 98 99 98 98
79 78 76 74 73 70 69 67 67 65 70 74 79 83 87 90 92 93 93 98 96 98 98 97 94 94 79 74 80 80 80 76 73 74 75 89 89 98 98 98 97 98 98
85 83 81 79 78 75 74 73 70 72 72 74 77 79 84 89 92 91 92 96 95 98 97 95 95 94 94 84 85 84 82 82 83 81 84 77 79 87 89 95 93 98 98
80 80 78 77 76 73 74 74 74 75 77 78 79 83 85 86 87 96 97 97 98 96 97 98 94 96 95 95 88 88 90 85 87 83 81 86 83 87 85 81 81 87 86
78 77 75 73 73 73 70 69 71 74 76 79 84 87 88 90 90 89 91 93 95 97 97 97 97 98 98 96 95 94 98 95 95 95 93 90 86 87 89 92 95 95 96
75 72 69 66 64 62 59 58 58 60 61 62 66 71 79 84 87 90 93 95 96 96 96 96 97 97 97 97 97 97 95 97 97 97 98 98 97 96 95 93 93 95 96
64 55 48 42 38 35 33 32 32 33 34 35 37 40 44 49 60 72 83 89 94 95 96 96 97 97 95 96 97 97 97 97 96 97 97 97 97 97 97 97 97 97 97

GFSMW_prec_cthk_111.txt.gz
RH
12 11 11 10 10 10 11 12 20 23 23 24 25 27 29 35 46 48 48 50 49 53 46 42 43 41 43 45 45 45 48 52 56 61 62 61 54 50 57 69 85 91 93
15 15 12 10 9 10 11 11 10 15 20 21 24 23 26 28 36 47 48 49 47 51 53 47 42 47 47 46 47 46 50 56 57 59 65 65 58 51 57 69 84 94 96
33 30 23 20 17 15 14 13 12 11 15 18 22 25 28 33 31 38 49 47 46 47 55 54 52 51 51 48 47 51 56 58 58 62 66 69 59 53 55 58 80 94 95
38 43 39 31 28 24 20 19 18 16 15 17 19 25 24 30 32 30 36 45 46 48 49 48 60 63 59 56 53 58 61 61 60 63 65 72 66 55 53 55 67 93 92
52 47 48 47 43 37 29 24 22 22 18 20 21 23 25 23 30 31 35 45 45 46 46 45 59 65 63 65 67 67 65 61 60 61 64 72 70 57 53 56 56 75 92
60 64 61 60 59 57 48 39 31 28 23 22 22 24 24 27 30 31 35 41 43 47 50 47 51 68 55 58 56 63 62 62 63 60 64 70 72 55 56 60 57 68 84
67 72 74 72 67 63 59 54 43 30 28 25 23 25 31 35 32 34 36 39 43 44 45 44 51 69 64 66 63 60 53 57 61 59 61 69 71 62 60 61 60 64 79
70 76 86 78 77 76 76 66 54 40 32 31 26 34 39 40 40 45 44 44 43 48 46 46 57 67 71 69 65 58 47 51 59 60 62 68 68 60 58 56 59 59 69
79 84 90 83 87 87 85 77 63 53 47 40 38 38 40 46 46 50 52 50 52 53 50 49 62 66 67 69 59 62 48 52 60 60 63 69 66 62 57 55 54 61 64
92 92 92 86 87 92 91 88 75 66 57 51 53 52 57 58 57 58 54 54 58 57 56 55 60 69 70 59 57 48 49 50 56 62 65 75 65 56 50 50 59 65 64
96 96 97 97 97 98 97 97 90 81 76 68 66 65 68 65 64 62 62 63 57 55 56 60 65 72 68 62 53 50 49 54 61 64 76 73 56 49 48 53 66 66 66
96 97 97 97 98 98 98 99 95 92 89 86 79 75 79 72 67 66 72 74 62 58 61 63 66 67 70 76 54 51 54 62 66 72 70 54 52 51 56 61 62 67 74
97 97 97 97 97 97 97 97 93 91 93 87 79 75 77 76 75 72 77 77 69 68 65 71 75 76 77 79 62 59 64 67 70 71 67 63 55 55 58 63 66 71 78
93 96 98 99 97 93 89 99 95 92 94 94 93 86 84 81 79 78 79 77 70 74 80 89 93 91 89 79 70 63 65 67 76 73 69 55 58 59 65 63 70 80 78
88 88 87 87 87 87 89 93 92 91 96 88 94 93 96 92 92 89 80 72 70 76 85 92 94 91 90 81 70 68 72 80 74 72 60 55 56 57 60 64 69 79 78
81 80 79 81 84 87 85 90 88 92 95 98 92 93 98 98 97 95 94 90 92 97 97 96 94 92 87 73 71 77 83 80 78 72 61 55 55 59 68 78 91 83 86
80 82 73 75 81 78 81 86 90 94 92 93 99 95 95 99 97 97 99 99 98 96 92 98 97 84 75 79 84 87 85 82 80 73 64 56 57 60 67 91 98 98 96
82 81 79 76 76 75 76 79 85 91 98 93 97 98 96 99 97 98 98 96 97 98 97 97 87 85 87 86 85 87 89 87 84 80 74 64 61 64 69 91 96 99 98
85 83 81 79 75 73 77 78 79 82 88 93 98 98 98 98 97 97 98 98 98 98 98 98 96 97 96 96 96 95 91 88 87 85 82 77 66 63 69 89 95 98 98
84 83 81 79 74 74 73 71 73 73 76 77 84 88 92 94 97 98 98 98 99 97 98 94 96 97 97 97 96 95 93 88 88 90 88 82 73 69 74 82 88 94 98
79 76 72 70 69 68 68 67 69 68 70 72 74 72 74 78 78 87 95 94 97 98 97 95 93 96 94 95 96 92 94 89 91 93 90 87 84 75 74 78 85 89 91
69 65 61 57 54 51 50 51 52 55 56 59 62 65 67 70 72 72 74 77 82 86 91 89 96 94 91 97 97 95 97 94 96 97 95 91 94 89 83 83 84 92 92
59 53 46 41 37 35 33 31 32 32 33 33 35 38 42 45 49 55 63 71 73 74 79 81 84 87 87 90 93 94 97 97 97 97 97 94 95 96 91 94 92 89 90
49 42 36 32 29 27 25 24 24 23 21 21 21 23 24 26 28 31 35 38 43 49 57 67 78 82 82 81 83 86 92 96 96 97 97 97 96 97 95 94 96 96 96
39 33 29 26 24 21 18 17 15 13 12 12 12 12 12 13 15 18 21 24 28 30 32 37 42 47 54 69 82 84 87 88 91 94 95 95 96 97 96 97 97 97 97
32 28 24 19 16 14 13 11 11 10 9 9 9 10 10 10 10 11 12 12 12 13 15 17 20 23 29 35 41 47 63 83 87 88 89 91 93 95 96 96 96 96 96

GFSMW_prec_cthk_114.txt.gz
RH
26 23 23 22 17 15 13 10 9 19 26 32 38 44 48 53 55 58 53 45 44 46 50 54 51 44 42 44 45 48 51 52 53 52 51 52 52 59 60 53 52 56 67
29 28 25 25 24 20 19 17 15 13 17 26 28 35 39 40 47 51 56 55 50 46 49 51 53 45 42 45 45 46 50 53 53 54 58 55 55 58 64 58 53 54 65
34 32 27 28 28 25 22 19 17 17 15 16 21 25 36 41 38 40 40 44 42 40 44 45 47 51 48 49 50 50 51 53 54 60 63 62 55 58 67 62 54 54 61
38 36 33 31 32 31 28 24 20 17 17 19 21 22 28 31 31 34 34 32 34 37 38 45 46 49 54 55 50 52 55 57 53 64 65 65 62 59 66 66 53 50 52
39 40 38 39 39 38 35 29 26 22 22 24 24 23 20 24 30 29 31 33 31 34 38 45 50 48 51 55 55 58 58 57 59 63 68 69 66 61 62 68 60 50 52
47 46 46 44 46 48 45 41 34 32 30 27 28 29 26 24 30 29 27 30 33 26 32 44 51 49 47 49 54 65 68 69 70 73 73 68 68 60 62 70 63 55 57
54 55 53 50 52 58 58 54 50 47 46 39 30 31 30 28 33 31 29 32 30 32 31 41 49 50 46 52 62 75 68 62 65 70 66 68 65 63 61 67 70 61 54
63 64 62 63 61 64 60 58 56 52 54 49 36 34 33 33 33 37 36 37 33 36 38 44 50 50 48 53 60 67 66 63 72 70 63 61 58 62 62 64 71 63 54
73 72 71 74 68 64 62 68 69 71 66 58 43 40 41 39 40 40 40 38 38 42 42 48 56 54 49 52 59 76 72 74 78 72 61 57 53 60 60 66 69 62 58
78 77 82 82 79 76 71 75 78 84 71 58 43 42 41 39 48 49 43 45 50 49 54 54 59 57 51 54 57 71 74 78 78 72 62 56 55 61 63 69 69 60 57
83 87 89 94 92 86 85 89 98 90 82 66 50 47 46 47 59 54 56 60 65 69 67 62 60 58 56 53 57 69 74 79 71 62 54 54 57 63 64 77 67 53 50
89 89 96 95 95 95 96 97 97 98 92 79 71 67 63 66 75 76 69 69 72 75 72 70 65 63 59 62 69 74 83 80 76 53 57 57 62 66 73 72 56 51 51
91 95 96 96 96 97 97 98 99 99 98 93 86 78 74 80 75 70 73 79 83 85 82 77 77 77 77 78 77 88 90 84 80 67 59 62 75 71 70 65 60 57 60
95 95 96 97 97 94 97 98 99 98 99 97 93 92 91 90 84 76 77 78 79 85 82 84 81 77 73 75 80 80 82 79 82 70 68 69 68 74 70 66 55 57 60
96 94 93 95 94 93 95 99 99 99 97 99 97 97 96 93 88 86 81 82 83 87 89 88 81 73 75 82 88 92 92 88 84 79 67 66 70 69 70 57 54 59 60
95 91 94 84 86 90 92 93 97 97 99 98 99 96 96 93 91 88 88 87 91 91 91 89 82 83 87 93 97 97 92 91 86 71 66 70 72 73 64 55 53 57 63
89 86 78 80 83 82 82 84 90 96 97 95 98 99 98 98 98 98 97 94 95 94 92 90 90 94 96 96 98 97 94 92 77 72 75 78 79 73 67 60 55 58 61
88 84 81 79 79 79 79 83 84 91 97 98 97 98 98 98 99 97 98 98 98 98 97 96 95 97 99 97 98 99 94 87 84 84 85 85 81 78 75 70 65 66 63
84 82 80 75 73 74 78 79 77 80 80 85 92 95 97 97 98 97 98 98 98 98 97 98 98 97 98 98 96 93 88 87 90 92 92 86 87 84 81 79 74 68 63
75 71 68 66 62 63 62 62 64 68 71 75 77 79 81 87 89 96 98 98 98 98 98 98 98 98 98 97 95 96 96 97 99 98 95 91 89 89 86 84 80 72 67
61 54 48 43 41 39 38 40 42 47 49 50 55 61 65 73 77 78 80 87 89 92 95 97 98 98 97 98 98 98 98 97 95 94 94 92 91 89 91 88 86 81 75
47 39 34 31 30 28 27 27 28 30 28 29 30 32 35 39 48 53 56 62 66 71 76 80 84 87 90 94 95 92 97 97 95 97 94 93 91 91 91 92 93 92 91
36 32 29 26 23 22 21 20 20 20 18 18 18 18 20 21 22 23 24 26 31 36 43 48 52 58 69 77 81 84 86 85 90 94 95 96 98 96 95 93 94 95 95
34 30 27 25 22 20 18 17 15 14 12 12 12 11 10 11 11 13 14 15 17 19 22 26 28 31 36 41 46 56 70 78 80 81 85 88 92 93 95 96 94 96 96
33 28 26 24 20 17 14 12 11 10 10 10 9 10 10 10 14 11 9 10 9 9 11 13 18 18 19 22 27 30 36 44 51 64 74 77 81 87 92 94 95 96 96
33 30 27 22 20 16 13 17 14 13 13 17 17 12 14 14 13 14 18 10 10 9 9 9 8 10 10 11 12 15 19 23 27 35 42 50 63 80 86 88 92 94 95